星链-5801 (STARLINK-5801 )

导读

STARLINK-5801是美国SpaceX公司星链(Starlink)低轨互联网星座中的一颗卫星,于2023年3月24日由猎鹰9号运载火箭发射升空。卫星运行在近地轨道,属于第二代星链卫星,采用先进通信技术,主要为全球提供高速低延迟卫星互联网服务,进一步拓展了星链星座的覆盖范围与网络容量,是美国推进全球低轨卫星互联网部署的组成部分。

基本信息
目录编号:
56005
目录名称:
STARLINK-5801
国际标识:
2023-042V
轨道中心:
EARTH
卫星名称:
星链-5801
卫星全名:
星链-5801 (STARLINK-5801 )
卫星状态:
在轨 (已飞行1179 天)
发射日期:
2023-03-24 UTC
国别 :
美国 (US)
星等 :
--
轨道信息
数据来源 国际轨道数据 AOE轨道数据
星历时间 2026-06-14T19:18:22+0800
13小时前
查看轨道信息
2026-06-11T12:00:00+0800
3天前
查看轨道信息
半长轴 6861.144km 6861.202km
偏心率 0.0002015 0.0001833
轨道倾角 43.004° 43.004°
近地点辐角 269.991° 227.593°
升交点赤经 237.064° 255.727°
平近点角 90.071° 299.208°
近地点 481.624km 481.807km
远地点 484.39km 484.323km
周期 94.266分钟 94.267分钟
每日圈数 15.275941 15.275749
详细信息
固有亮度:
5
最大亮度:
2.5
卫星平台:
Starlink v1.5
覆盖范围:
全球
运营商:
太空探索技术公司
运营商所在国:
美国
制造商(研发单位):
太空探索技术公司
制造商所在国:
美国
使用方式:
暂无
卫星简介
星链(Starlink)计划是由太空探索技术公司(SpaceX)提出的一个巨型低轨卫星互联网星座项目,计划在2019年至2024年间在太空搭建由约1.2万颗卫星组成的“星链”网络,其中1584颗将部署在地球上空550千米处的近地轨道,并从2020年开始工作。该卫星仍在工作。
2D轨道图
3D轨道图
轨道高度分析图
轨道倾角分析图
轨道综合分析图
查看轨道综合分析图